Regional Weather Roundup
Issued by NWS

Home | Current Version | Previous Version | Graphics & Text | Print | Product List | Glossary On
Versions: 1 2 3 4 5 6 7 8 9 10 11 12 13 14 15 16 17 18 19 20 21 22 23 24 25 26 27 28 29 30 31 32 33 34 35 36 37 38 39 40 41 42 43 44 45 46 47 48 49 50
000
ASUS45 KABQ 072201
RWRNM
NEW MEXICO REGIONAL WEATHER ROUNDUP
NATIONAL WEATHER SERVICE ALBUQUERQUE NM
300 PM MST WED DEC 07 2016

NOTE: "FAIR" MEANS FEW OR NO CLOUDS BELOW 12,000 FEET AGL WITH NO
       SIGNIFICANT WEATHER OR OBSTRUCTIONS TO VISION.

      THIS PRODUCT IS RELEASED AS TWO VERSIONS.  ONE VERSION NEAR
      THE TOP OF THE HOUR CONTAINING PRELIMINARY DATA FROM ALBUQUERQUE
      AND OTHER STATIONS.  A FINAL VERSION WITH ADDITIONAL DATA IS
      ISSUED ABOUT 10 MINUTES AFTER THE HOUR.

NMZ501-503-504-510>518-072300-
NORTHWEST PLATEAU/NORTHCENTRAL MOUNTAINS

CITY           SKY/WX    TMP DP  RH WIND       PRES   REMARKS
FARMINGTON     FAIR      36   3  25 W16G24    30.07R WCI  26
LOS ALAMOS     CLOUDY    36  18  48 NE6       30.03S WCI  31
SANTA FE       FAIR      42  15  33 W15G21    30.02R
TAOS           FAIR      34  10  37 W14       30.03R WCI  24
ANGEL FIRE     FAIR      27  12  53 SW13G20   30.01R WCI  16

$$
NMZ402-403-502-505>509-072300-
WESTCENTRAL MOUNTAINS/SOUTHWEST MOUNTAINS

CITY           SKY/WX    TMP DP  RH WIND       PRES   REMARKS
GALLUP         FAIR      44  19  36 W13       30.04S
GRANTS         FAIR      42  21  42 N6G16     30.05R

$$
NMZ407-409-411-412-072300-
SOUTHERN DESERTS

CITY           SKY/WX    TMP DP  RH WIND       PRES   REMARKS
DEMING         FAIR      57  34  41 W14       30.00R
LAS CRUCES     FAIR      58  30  34 W18G24    30.00S
T OR C         FAIR      58  22  24 E8        29.97R

$$
NMZ519>523-072300-
CENTRAL VALLEYS/CENTRAL HIGHLANDS

CITY           SKY/WX    TMP DP  RH WIND       PRES   REMARKS
ALBUQUERQUE    PTSUNNY   44  20  38 N13       30.05R
DOUBLE EAGLE   PTSUNNY   41  19  42 NW14G25   30.06
MORIARTY ARPT  FAIR      42  17  36 N13G18    30.05R
CLINES CORNERS FAIR      39  18  42 NW28G35   30.02R WCI  28
BELEN          FAIR      49  20  31 NE20      30.03R
SOCORRO        FAIR      56  25  30 N8        30.00R

$$
NMZ524>526-539-540-072300-
SOUTHCENTRAL MOUNTAINS

CITY           SKY/WX    TMP DP  RH WIND       PRES   REMARKS
RUIDOSO        FAIR      46  18  31 NW8G21    30.04R

$$
NMZ527>531-072300-
NORTHEAST HIGHLANDS/NORTHEAST PLAINS

CITY           SKY/WX    TMP DP  RH WIND       PRES   REMARKS
LAS VEGAS      FAIR      41  13  31 E16       29.97R
RATON          FAIR      26   7  44 NE22      30.02R WCI  12
CLAYTON        FAIR      27  15  61 NE23      30.12R WCI  12

$$
NMZ532>537-072300-
EASTCENTRAL PLAINS

CITY           SKY/WX    TMP DP  RH WIND       PRES   REMARKS
TUCUMCARI      FAIR      40  13  33 NE20      30.09R WCI  30
CANNON AFB     NOT AVBL
CLOVIS AIRPORT FAIR      39  12  33 NE23      30.07R WCI  29

$$
NMZ028-029-538-072300-
SOUTHEAST PLAINS

CITY           SKY/WX    TMP DP  RH WIND       PRES   REMARKS
ROSWELL        FAIR      52  34  50 S12       29.99R
ARTESIA        FAIR      46  37  71 CALM      30.00R
CARLSBAD       NOT AVBL


$$



USA.gov is the U.S. government's official web portal to all federal, state and local government web resources and services.